This is the latest recevied weather packets stored in our database for station/object KB0BDN-13. If no packets are shown the sender has not sent any weather packets the latest 10 day(s).
| Time | Temp. | Humidity | Pressure | Rain* | Wind** | Luminosity | Snow |
|---|---|---|---|---|---|---|---|
| 1777847527 | 13.89° C | 34% | - | 0 mm | - | - | - |
| 1777846627 | 14.44° C | 34% | - | 0 mm | - | - | - |
| 1777845727 | 14.44° C | 34% | - | 0 mm | - | - | - |
| 1777844827 | 14.44° C | 31% | - | 0 mm | - | - | - |
| 1777843927 | 14.44° C | 34% | - | 0 mm | - | - | - |
| 1777843027 | 14.44° C | 32% | - | 0 mm | - | - | - |
| 1777842127 | 15° C | 30% | - | 0 mm | - | - | - |
| 1777841227 | 15° C | 29% | - | 0 mm | - | - | - |
| 1777840327 | 14.44° C | 30% | - | 0 mm | - | - | - |
| 1777839427 | 14.44° C | 30% | - | 0 mm | - | - | - |
| 1777838527 | 13.33° C | 29% | - | 0 mm | - | - | - |
| 1777837627 | 13.89° C | 30% | - | 0 mm | - | - | - |
| 1777836727 | 13.33° C | 28% | - | 0 mm | - | - | - |
| 1777835827 | 13.89° C | 32% | - | 0 mm | - | - | - |
| 1777834927 | 13.89° C | 33% | - | 0 mm | - | - | - |
| 1777834027 | 13.89° C | 34% | - | 0 mm | - | - | - |
| 1777833127 | 13.33° C | 34% | - | 0 mm | - | - | - |
| 1777832227 | 12.78° C | 33% | - | 0 mm | - | - | - |
| 1777831327 | 12.78° C | 33% | - | 0 mm | - | - | - |
| 1777830427 | 12.78° C | 35% | - | 0 mm | - | - | - |
| 1777829527 | 12.78° C | 37% | - | 0 mm | - | - | - |
| 1777828627 | 12.22° C | 36% | - | 0 mm | - | - | - |
| 1777827727 | 12.22° C | 39% | - | 0 mm | - | - | - |
| 1777826827 | 12.22° C | 41% | - | 0 mm | - | - | - |
| 1777825927 | 11.67° C | 40% | - | 0 mm | - | - | - |
* Rain latest hour (hover to see other rain measurements)
** Current wind speed in m/s (hover to see current wind gust speed)